Tracking 30995 objects as of 5-Jul-2025
HD Live streaming from Space Station
objects crossing your sky now

ORBCOMM FM 10

Track ORBCOMM FM 10 now!
10-day predictions
ORBCOMM FM 10 is classified as:


NORAD ID: 25113
Int'l Code: 1997-084B
Perigee: 743.1 km
Apogee: 751.0 km
Inclination: 45.0 °
Period: 99.6 minutes
Semi major axis: 7118 km
RCS: 0.4291 m2 (medium)
Launch date: December 23, 1997
Source: ORBCOMM (ORB)
Launch site: Pegasus launched from Eastern Range Air Space (ERAS)
Your satellite tracking list
Your tracking list is empty




NASA's NSSDC Master Catalog

Two Line Element Set (TLE):
1 25113U 97084B   25186.61324384  .00000846  00000-0  27760-3 0  9996
2 25113  45.0157 281.8224 0005577 284.3613  75.6620 14.45640464619183
Source of the keplerian elements: AFSPC